AirNav   Pilot Hours Calculator
 
 400 users online  

N85 Alexandria Airport
Pittstown, New Jersey, USA

GOING TO PITTSTOWN?


FAA INFORMATION EFFECTIVE 03 DECEMBER 2020

Location

FAA Identifier: N85
Lat/Long: 40-35-15.2660N 075-01-09.9140W
40-35.254433N 075-01.165233W
40.5875739,-75.0194206
(estimated)
Elevation: 480 ft. / 146.3 m (surveyed)
Variation: 10W (1965)
From city: 2 miles W of PITTSTOWN, NJ
Time zone: UTC -5 (UTC -4 during Daylight Saving Time)
Zip code: 08848

Airport Operations

Airport use: Open to the public
Activation date: 09/1945
Control tower: no
ARTCC: NEW YORK CENTER
FSS: MILLVILLE FLIGHT SERVICE STATION
NOTAMs facility: MIV (NOTAM-D service available)
Attendance: 0800-DUSK
Wind indicator: lighted
Segmented circle: no
Lights: ACTVT MIRL RY 08/26 - 121.8.
Beacon: white-green (lighted land airport)
ACTIVATE ROTG BCN - 121.8.

Airport Communications

CTAF/UNICOM: 122.975
ALLENTOWN APPROACH: 119.65 ;3000 FT & BLW 124.45 ;ABV 3000 FT
ALLENTOWN DEPARTURE: 119.65 ;3000 FT & BLW 124.45 ;ABV 3000 FT
IC: 119.65 ;3000 FT & BLW 124.45 ;ABV 3000 FT
WX AWOS-3 at N40 (2.2 nm SE): 121.725
WX ASOS at DYL (16 nm S): 118.875 (215-345-0392)
WX ASOS at SMQ (16 nm E): 120.6 (908-722-2139)
WX AWOS-3 at CKZ (17 nm SW): 126.325 (215-257-7291)
WX AWOS-3 at UKT (19 nm SW): 119.475 (215-538-7610)
WX ASOS at ABE (20 nm W): 126.975 (610-264-1765)

Nearby radio navigation aids

VOR radial/distance  VOR name  Freq  Var
SBJr281/12.7SOLBERG VOR/DME112.9010W
BWZr226/15.5BROADWAY VOR/DME114.2011W
ARDr356/20.7YARDLEY VOR/DME108.2010W
FJCr123/21.5ALLENTOWN VORTAC117.5010W
STWr207/25.4STILLWATER VOR/DME109.6011W
ETXr098/30.3EAST TEXAS VOR/DME110.2009W
PTWr057/33.0POTTSTOWN VORTAC116.5009W
RBVr324/33.3ROBBINSVILLE VORTAC113.8010W
SAXr228/36.1SPARTA VORTAC115.7011W
GXUr343/39.7MC GUIRE VORTAC110.6012W

 
NDB name  Hdg/Dist  Freq  Var  ID
CHATHAM264/28.425413WCAT -.-. .- -
AMBLER036/30.227512WING .. -. --.

Airport Services

Fuel available: 100LL JET-A
24 HR SELF-SERVICE
Parking: hangars and tiedowns
Airframe service: MAJOR
Powerplant service: MAJOR
Bottled oxygen: NONE
Bulk oxygen: NONE

Runway Information

Runway 8/26

Dimensions: 2550 x 60 ft. / 777 x 18 m
Surface: asphalt, in good condition
Runway edge lights: medium intensity
RUNWAY 8  RUNWAY 26
Latitude: 40-35.141883N40-35.322867N
Longitude: 075-01.407300W075-00.910250W
Elevation: 463.0 ft.480.0 ft.
Traffic pattern: leftleft
Runway heading: 074 magnetic, 064 true254 magnetic, 244 true
Markings: nonprecision, in good conditionnonprecision, in good condition
Visual slope indicator: 2-light PAPI on right (4.00 degrees glide path)2-light PAPI on left (3.75 degrees glide path)
PAPI UNUSBL BYD 2 DEGS LEFT OF CNTRLN.
Touchdown point: yes, no lightsyes, no lights
Obstructions: 50 ft. tree, 481 ft. from runway, 102 ft. left of centerline, 5:1 slope to clear71 ft. tree, 232 ft. from runway, 208 ft. left of centerline
+33 FT TREE, 58 FT FM RWY END, 108 FT L.

Runway 13/31

Dimensions: 1804 x 100 ft. / 550 x 30 m
Surface: asphalt/turf, in good condition
25 FT WIDE ASPH STRIP FULL LENGTH DOWN CENTER OF RWY. TURF PORTION OF RWY UNUSABLE.
RUNWAY 13  RUNWAY 31
Latitude: 40-35.352633N40-35.215417N
Longitude: 075-01.345033W075-00.999450W
Elevation: 444.0 ft.458.7 ft.
Traffic pattern: leftleft
Runway heading: 128 magnetic, 118 true308 magnetic, 298 true
Markings: numbers only, in fair conditionnumbers only, in fair condition
Touchdown point: yes, no lightsyes, no lights
Obstructions: 16 ft. tree, 433 ft. from runway, 95 ft. left of centerline, 14:1 slope to clear64 ft. tree, 666 ft. from runway, 142 ft. left of centerline, 7:1 slope to clear
+47 FT TREE, 112 FT FM RWY END, 117 FT L.

Airport Ownership and Management from official FAA records

Ownership: Privately-owned
Owner: ALEXANDRIA AIRPARK, LLC
63 AIRPORT ROAD
PITTSTOWN, NJ 08867
Phone 908-730-9223
Manager: W. FRITSCHE - L. CASTNER
63 AIRPORT ROAD
PITTSTOWN, NJ 08867
Phone 908-730-9223

Airport Operational Statistics

Aircraft based on the field: 90
Single engine airplanes: 83
Multi engine airplanes: 5
Ultralights: 2
    
Aircraft operations: avg 50/day *
60% local general aviation
40% transient general aviation
* for 12-month period ending 02 March 2020

Additional Remarks

TAXI ON PAVEMENT ONLY.
HEL TKOF AND LDGS RSTRD TO RWY 08/26 ONLY.
HEL USE FIXED-WING TFC PAT AND ALTS.
CTC ARPT MGR 908-730-9223 PRIOR TO CONDUCTING HEL TRNG ACT.
NO TGL OR STA ALLOWED.
FOR CD CTC ALLENTOWN APCH AT 800-728-6322.

Instrument Procedures

NOTE: All procedures below are presented as PDF files. If you need a reader for these files, you should download the free Adobe Reader.

NOT FOR NAVIGATION. Please procure official charts for flight.
FAA instrument procedures published for use from 03 December 2020 at 0901Z to 31 December 2020 at 0900Z.

 
IAPs - Instrument Approach Procedures
RNAV (GPS)-A   download (216KB)
RNAV (GPS)-B   download (198KB)
VOR/DME RWY 08   download (182KB)
NOTE: Special Take-Off Minimums/Departure Procedures apply   download

Other nearby airports with instrument procedures:

N40 - Sky Manor Airport (2 nm SE)
N51 - Solberg-Hunterdon Airport (13 nm E)
N43 - Braden Airpark (14 nm NW)
KDYL - Doylestown Airport (16 nm S)
KSMQ - Somerset Airport (16 nm E)
KCKZ - Pennridge Airport (17 nm SW)
KUKT - Quakertown Airport (19 nm SW)
KABE - Lehigh Valley International Airport (20 nm W)
47N - Central Jersey Regional Airport (20 nm E)
39N - Princeton Airport (20 nm SE)
 
Loc | Ops | Rwys | IFR | FBO | Links
Com | Nav | Svcs | Stats | Notes
Area around N85 (Alexandria Airport)
 
Road maps at: MapQuest Bing Google
 
Aerial photo
WARNING: Photo may not be current or correct
Aerial photo of N85 (Alexandria Airport)
Taken in the Fall of 2011
looking southwest.

Do you have a better or more recent aerial photo of Alexandria Airport that you would like to share? If so, please send us your photo.

 
Sectional chart

 
Airport diagram
CAUTION: Diagram may not be current
Diagram of N85 (Alexandria Airport)
 
Airport distance calculator
Flying to Alexandria Airport? Find the distance to fly.

From to N85

Sunrise and sunset
Times for 04-Dec-2020
 Local
(UTC-5)
 Zulu
(UTC)
Morning civil twilight06:3911:39
Sunrise07:0912:09
Sunset16:3221:32
Evening civil twilight17:0322:03

Current date and time
Zulu (UTC)  04-Dec-2020 09:42:59
Local (UTC-5)  04-Dec-2020 04:42:59
 
METAR
KDYL 
16nm S 
040854Z AUTO 16003KT 10SM CLR 04/M01 A3008 RMK AO2 SLP188 T00441006 58012
KSMQ 
16nm E 
ASOS 120.60 908-722-2139
040853Z AUTO 00000KT 10SM CLR 01/M02 A3008 RMK AO2 SLP188 T00111017 58010
KCKZ 
17nm SW 
040915Z AUTO 00000KT 10SM OVC100 04/00 A3007 RMK AO2
KUKT 
19nm SW 
040915Z AUTO 00000KT 10SM OVC095 04/01 A3007 RMK A01
KABE 
20nm W 
040851Z AUTO 34005KT 10SM OVC100 01/M02 A3007 RMK AO2 SLP185 T00061022 58015
KTTN 
20nm SE 
ASOS 133.70 609-538-8690
040853Z AUTO 19003KT 10SM FEW120 06/00 A3008 RMK AO2 SLP182 T00560000 58014
KXLL 
21nm W 
040915Z AUTO 31003KT 10SM OVC100 02/M01 A3007 RMK AO2
K12N 
29nm NE 
040854Z AUTO 00000KT 01/M02 A3007 RMK AO1 SLP189 T00061017 58011
KLOM 
29nm SW 
040915Z AUTO 18003KT 10SM CLR 07/00 A3009 RMK AO2 T00660001
KMMU 
30nm NE 
040915Z AUTO 00000KT 10SM OVC110 02/M00 A3008 RMK AO2
TAF
KABE 
20nm W 
040520Z 0406/0506 VRB03KT P6SM OVC090 FM041600 23004KT P6SM OVC040 FM041900 23005KT 4SM -RA OVC025 FM042100 VRB03KT 3SM -RA OVC008 FM050300 VRB02KT 2SM -RA OVC005
KTTN 
20nm SE 
040520Z 0406/0506 22006KT P6SM OVC100 FM041500 24005KT P6SM OVC060 FM041900 VRB03KT 6SM -RA OVC020 FM050100 VRB03KT 3SM -RA OVC008 FM050300 VRB02KT 2SM -RA BR OVC005
NOTAMs
Click for the latest NOTAMs
NOTAMs are issued by the DoD/FAA and will open in a separate window not controlled by AirNav.

 

 
 

FBO, Fuel Providers, and Aircraft Ground Support

  
 Business Name 
 
 Contact 
 
 Services / Description 
 
Fuel Prices
 
Comments
  
 Alexandria Field
UNICOM 122.975
908-730-9223
[web site]
[email]
Airport management, Aviation fuel, Flight training, Aircraft rental, Aircraft maintenance, Pilot supplies, ...

More info about Alexandria Field
Phillips 66
100LL Jet A
SS $4.40 $3.98 
 Updated 23-Nov-2020
 
   write
SS=Self service
Update Fuel Prices
 

Would you like to see your business listed on this page?

 If your business provides an interesting product or service to pilots, flight crews, aircraft, or users of the Alexandria Airport, you should consider listing it here.  To start the listing process, click on the button below
 
Add a business
 

Other Pages about Alexandria Airport

www.alexandriafield.com
 
Update a link
 
Copyright © AirNav, LLC. All rights reserved. Privacy Policy  Contact